Wetterdaten: Dienstag, 21.11.2017
Datum Zeit Temp. A. Aussen2m Feuchte A. Feuchte 2 Luftdruck Regen Wind Richtung Richtung Sonnenschein
21.11.2017 00:00 10,0 C 10,0 C 99 % 95 % 1008,8 hPa 0,0 l/m 21,8 km/h (4 Bft) SW 225 0 min
21.11.2017 00:05 10,0 C 10,1 C 99 % 95 % 1008,8 hPa 0,0 l/m 19,4 km/h (3 Bft) W-SW 245 0 min
21.11.2017 00:10 10,0 C 10,0 C 99 % 95 % 1008,8 hPa 0,0 l/m 18,2 km/h (3 Bft) W 260 0 min
21.11.2017 00:15 10,0 C 10,1 C 99 % 95 % 1008,8 hPa 0,0 l/m 19,4 km/h (3 Bft) W 260 0 min
21.11.2017 00:20 10,1 C 10,1 C 99 % 95 % 1008,8 hPa 0,0 l/m 17,6 km/h (3 Bft) W-SW 240 0 min
21.11.2017 00:25 10,1 C 10,1 C 99 % 95 % 1008,8 hPa 0,0 l/m 16,9 km/h (3 Bft) W-NW 290 0 min
21.11.2017 00:30 10,1 C 10,1 C 99 % 95 % 1008,8 hPa 0,0 l/m 17,6 km/h (3 Bft) W-SW 245 0 min
21.11.2017 00:35 10,1 C 10,2 C 99 % 95 % 1008,8 hPa 0,0 l/m 18,2 km/h (3 Bft) SW 230 0 min
21.11.2017 00:40 10,2 C 10,2 C 99 % 95 % 1008,8 hPa 0,0 l/m 17,6 km/h (3 Bft) W-SW 250 0 min
21.11.2017 00:45 10,2 C 10,2 C 99 % 95 % 1008,8 hPa 0,3 l/m 16,9 km/h (3 Bft) W 270 0 min
21.11.2017 00:50 10,1 C 10,2 C 99 % 95 % 1008,8 hPa 0,0 l/m 14,5 km/h (3 Bft) W-SW 240 0 min
21.11.2017 00:55 10,2 C 10,2 C 99 % 95 % 1008,8 hPa 0,3 l/m 17,6 km/h (3 Bft) W-SW 240 0 min
21.11.2017 01:00 10,2 C 10,2 C 99 % 95 % 1008,8 hPa 0,0 l/m 22,4 km/h (4 Bft) SW 235 0 min
21.11.2017 01:05 10,2 C 10,2 C 99 % 95 % 1008,8 hPa 0,0 l/m 24,2 km/h (4 Bft) W 270 0 min
21.11.2017 01:10 10,2 C 10,2 C 99 % 95 % 1008,8 hPa 0,0 l/m 14,5 km/h (3 Bft) SW 230 0 min
21.11.2017 01:15 10,2 C 10,2 C 99 % 95 % 1008,8 hPa 0,0 l/m 15,7 km/h (3 Bft) S-SW 210 0 min
21.11.2017 01:20 10,2 C 10,2 C 99 % 95 % 1008,8 hPa 0,0 l/m 18,2 km/h (3 Bft) W 265 0 min
21.11.2017 01:25 10,3 C 10,3 C 99 % 95 % 1008,8 hPa 0,0 l/m 25,4 km/h (4 Bft) NW 320 0 min
21.11.2017 01:30 10,3 C 10,3 C 99 % 95 % 1008,8 hPa 0,0 l/m 18,8 km/h (3 Bft) SW 220 0 min
21.11.2017 01:35 10,3 C 10,3 C 99 % 95 % 1008,8 hPa 0,0 l/m 16,9 km/h (3 Bft) S 190 0 min
21.11.2017 01:40 10,3 C 10,3 C 99 % 95 % 1008,8 hPa 0,0 l/m 20,6 km/h (4 Bft) W 270 0 min
21.11.2017 01:45 10,3 C 10,3 C 99 % 95 % 1008,8 hPa 0,0 l/m 19,4 km/h (3 Bft) W 260 0 min
21.11.2017 01:50 10,4 C 10,4 C 99 % 95 % 1008,8 hPa 0,0 l/m 22,4 km/h (4 Bft) SW 235 0 min
21.11.2017 01:55 10,3 C 10,4 C 99 % 95 % 1008,8 hPa 0,3 l/m 19,4 km/h (3 Bft) W-SW 255 0 min
21.11.2017 02:00 10,3 C 10,4 C 99 % 95 % 1008,8 hPa 0,0 l/m 16,9 km/h (3 Bft) SW 225 0 min
21.11.2017 02:05 10,3 C 10,3 C 99 % 95 % 1008,8 hPa 0,3 l/m 21,8 km/h (4 Bft) S-SW 210 0 min
21.11.2017 02:10 10,3 C 10,3 C 99 % 95 % 1008,8 hPa 0,0 l/m 20,0 km/h (4 Bft) SW 215 0 min
21.11.2017 02:15 10,3 C 10,4 C 99 % 95 % 1009,8 hPa 0,0 l/m 13,3 km/h (3 Bft) SW 215 0 min
21.11.2017 02:20 10,3 C 10,4 C 99 % 95 % 1009,8 hPa 0,0 l/m 15,1 km/h (3 Bft) SW 215 0 min
21.11.2017 02:25 10,4 C 10,4 C 99 % 95 % 1009,8 hPa 0,0 l/m 20,6 km/h (4 Bft) SW 225 0 min
21.11.2017 02:30 10,4 C 10,4 C 99 % 95 % 1009,8 hPa 0,0 l/m 17,6 km/h (3 Bft) SW 220 0 min
21.11.2017 02:35 10,4 C 10,4 C 99 % 95 % 1009,8 hPa 0,0 l/m 18,2 km/h (3 Bft) W 270 0 min
21.11.2017 02:40 10,4 C 10,4 C 99 % 95 % 1009,8 hPa 0,3 l/m 20,0 km/h (4 Bft) SW 215 0 min
21.11.2017 02:45 10,4 C 10,4 C 99 % 95 % 1009,8 hPa 0,0 l/m 18,8 km/h (3 Bft) W-NW 285 0 min
21.11.2017 02:50 10,4 C 10,5 C 99 % 95 % 1009,8 hPa 0,0 l/m 16,9 km/h (3 Bft) SW 215 0 min
21.11.2017 02:55 10,4 C 10,5 C 99 % 95 % 1009,8 hPa 0,0 l/m 14,5 km/h (3 Bft) S-SW 210 0 min
21.11.2017 03:00 10,4 C 10,5 C 99 % 95 % 1009,8 hPa 0,0 l/m 13,9 km/h (3 Bft) S 190 0 min
21.11.2017 03:05 10,5 C 10,5 C 99 % 95 % 1009,8 hPa 0,0 l/m 16,9 km/h (3 Bft) W-SW 255 0 min
21.11.2017 03:10 10,5 C 10,5 C 99 % 95 % 1009,8 hPa 0,0 l/m 18,8 km/h (3 Bft) N 355 0 min
21.11.2017 03:15 10,5 C 10,5 C 99 % 95 % 1009,8 hPa 0,0 l/m 13,3 km/h (3 Bft) N-NW 345 0 min
21.11.2017 03:20 10,5 C 10,6 C 99 % 95 % 1009,8 hPa 0,0 l/m 11,5 km/h (2 Bft) SW 235 0 min
21.11.2017 03:25 10,5 C 10,6 C 99 % 95 % 1009,8 hPa 0,0 l/m 16,3 km/h (3 Bft) W 270 0 min
21.11.2017 03:30 10,6 C 10,6 C 99 % 95 % 1009,8 hPa 0,0 l/m 16,9 km/h (3 Bft) W-SW 245 0 min
21.11.2017 03:35 10,6 C 10,6 C 99 % 95 % 1009,8 hPa 0,0 l/m 15,1 km/h (3 Bft) N-NW 335 0 min
21.11.2017 03:40 10,6 C 10,6 C 99 % 95 % 1009,8 hPa 0,0 l/m 15,7 km/h (3 Bft) S 175 0 min
21.11.2017 03:45 10,7 C 10,6 C 99 % 95 % 1008,8 hPa 0,0 l/m 15,7 km/h (3 Bft) W 280 0 min
21.11.2017 03:50 10,6 C 10,6 C 99 % 95 % 1008,8 hPa 0,0 l/m 10,3 km/h (2 Bft) W 270 0 min
21.11.2017 03:55 10,6 C 10,6 C 99 % 95 % 1008,8 hPa 0,0 l/m 12,1 km/h (2 Bft) S 185 0 min
21.11.2017 04:00 10,6 C 10,6 C 99 % 95 % 1008,8 hPa 0,0 l/m 12,1 km/h (2 Bft) SW 215 0 min
21.11.2017 04:05 10,6 C 10,7 C 99 % 95 % 1008,8 hPa 0,0 l/m 15,1 km/h (3 Bft) W 270 0 min
21.11.2017 04:10 10,7 C 10,7 C 99 % 95 % 1008,8 hPa 0,0 l/m 14,5 km/h (3 Bft) SW 235 0 min
21.11.2017 04:15 10,6 C 10,7 C 99 % 95 % 1008,8 hPa 0,0 l/m 15,7 km/h (3 Bft) W-SW 240 0 min
21.11.2017 04:20 10,7 C 10,7 C 99 % 95 % 1008,8 hPa 0,0 l/m 12,7 km/h (3 Bft) S-SW 210 0 min
21.11.2017 04:25 10,7 C 10,7 C 99 % 95 % 1008,8 hPa 0,3 l/m 19,4 km/h (3 Bft) W-SW 240 0 min
21.11.2017 04:30 10,7 C 10,7 C 99 % 95 % 1008,8 hPa 0,0 l/m 15,7 km/h (3 Bft) W-SW 255 0 min
21.11.2017 04:35 10,7 C 10,7 C 99 % 96 % 1008,8 hPa 0,0 l/m 13,9 km/h (3 Bft) W-NW 290 0 min
21.11.2017 04:40 10,7 C 10,7 C 99 % 96 % 1008,8 hPa 0,6 l/m 14,5 km/h (3 Bft) W-NW 290 0 min
21.11.2017 04:45 10,7 C 10,7 C 99 % 96 % 1009,8 hPa 0,0 l/m 17,6 km/h (3 Bft) W-SW 245 0 min
21.11.2017 04:50 10,7 C 10,7 C 99 % 96 % 1009,8 hPa 0,3 l/m 12,1 km/h (2 Bft) W-SW 240 0 min
21.11.2017 04:55 10,6 C 10,7 C 99 % 96 % 1009,8 hPa 0,0 l/m 10,9 km/h (2 Bft) SW 235 0 min
21.11.2017 05:00 10,6 C 10,7 C 99 % 96 % 1008,8 hPa 0,0 l/m 10,3 km/h (2 Bft) SW 235 0 min
21.11.2017 05:05 10,7 C 10,7 C 99 % 96 % 1008,8 hPa 0,0 l/m 17,6 km/h (3 Bft) W 270 0 min
21.11.2017 05:10 10,7 C 10,7 C 99 % 96 % 1008,8 hPa 0,0 l/m 18,8 km/h (3 Bft) W-SW 245 0 min
21.11.2017 05:15 10,7 C 10,8 C 99 % 96 % 1008,8 hPa 0,0 l/m 12,7 km/h (3 Bft) SW 235 0 min
21.11.2017 05:20 10,8 C 10,7 C 99 % 96 % 1008,8 hPa 0,0 l/m 15,1 km/h (3 Bft) O-NO 70 0 min
21.11.2017 05:25 10,8 C 10,8 C 99 % 95 % 1008,8 hPa 0,0 l/m 14,5 km/h (3 Bft) W-SW 240 0 min
21.11.2017 05:30 10,8 C 10,8 C 99 % 95 % 1008,8 hPa 0,0 l/m 14,5 km/h (3 Bft) N-NO 25 0 min
21.11.2017 05:35 10,8 C 10,9 C 99 % 96 % 1008,8 hPa 0,0 l/m 16,3 km/h (3 Bft) W-SW 255 0 min
21.11.2017 05:40 10,8 C 10,8 C 99 % 95 % 1008,8 hPa 0,0 l/m 18,8 km/h (3 Bft) W-NW 290 0 min
21.11.2017 05:45 10,8 C 10,8 C 99 % 95 % 1008,8 hPa 0,0 l/m 12,1 km/h (2 Bft) SW 220 0 min
21.11.2017 05:50 10,8 C 10,9 C 99 % 96 % 1008,8 hPa 0,0 l/m 12,7 km/h (3 Bft) W-SW 245 0 min
21.11.2017 05:55 10,8 C 10,8 C 99 % 95 % 1008,8 hPa 0,0 l/m 14,5 km/h (3 Bft) W 260 0 min
21.11.2017 06:00 10,8 C 10,8 C 99 % 95 % 1009,8 hPa 0,0 l/m 12,1 km/h (2 Bft) S-SW 210 0 min
21.11.2017 06:05 10,8 C 10,9 C 99 % 95 % 1009,8 hPa 0,0 l/m 18,2 km/h (3 Bft) SW 215 0 min
21.11.2017 06:10 10,8 C 10,8 C 99 % 95 % 1009,8 hPa 0,0 l/m 16,9 km/h (3 Bft) SW 230 0 min
21.11.2017 06:15 10,8 C 10,8 C 99 % 95 % 1009,8 hPa 0,0 l/m 12,7 km/h (3 Bft) SW 230 0 min
21.11.2017 06:20 10,8 C 10,9 C 99 % 95 % 1009,8 hPa 0,0 l/m 16,9 km/h (3 Bft) SW 230 0 min
21.11.2017 06:25 10,8 C 10,8 C 99 % 95 % 1009,8 hPa 0,0 l/m 15,7 km/h (3 Bft) NW 325 0 min
21.11.2017 06:30 10,8 C 10,9 C 99 % 95 % 1008,8 hPa 0,0 l/m 16,3 km/h (3 Bft) S-SW 205 0 min
21.11.2017 06:35 10,8 C 10,8 C 99 % 95 % 1008,8 hPa 0,0 l/m 12,7 km/h (3 Bft) W 260 0 min
21.11.2017 06:40 10,8 C 10,8 C 99 % 95 % 1008,8 hPa 0,0 l/m 15,7 km/h (3 Bft) SW 230 0 min
21.11.2017 06:45 10,8 C 10,8 C 99 % 95 % 1008,8 hPa 0,3 l/m 13,3 km/h (3 Bft) SW 230 0 min
21.11.2017 06:50 10,7 C 10,8 C 99 % 95 % 1008,8 hPa 0,0 l/m 11,5 km/h (2 Bft) W-NW 300 0 min
21.11.2017 06:55 10,8 C 10,8 C 99 % 95 % 1008,8 hPa 0,0 l/m 12,1 km/h (2 Bft) S-SW 210 0 min
21.11.2017 07:00 10,8 C 10,8 C 99 % 95 % 1009,8 hPa 0,0 l/m 15,7 km/h (3 Bft) S-SW 200 0 min
21.11.2017 07:05 10,8 C 10,8 C 99 % 95 % 1009,8 hPa 0,0 l/m 13,3 km/h (3 Bft) W-NW 285 0 min
21.11.2017 07:10 10,8 C 10,8 C 99 % 95 % 1009,8 hPa 0,0 l/m 16,3 km/h (3 Bft) W-SW 255 0 min
21.11.2017 07:15 10,8 C 10,9 C 99 % 95 % 1009,8 hPa 0,0 l/m 18,2 km/h (3 Bft) W-SW 245 0 min
21.11.2017 07:20 10,8 C 10,9 C 99 % 95 % 1009,8 hPa 0,0 l/m 14,5 km/h (3 Bft) W 275 0 min
21.11.2017 07:25 10,8 C 10,9 C 99 % 95 % 1009,8 hPa 0,0 l/m 21,2 km/h (4 Bft) W-SW 245 0 min
21.11.2017 07:30 10,8 C 10,9 C 99 % 95 % 1008,8 hPa 0,0 l/m 20,0 km/h (4 Bft) SW 235 0 min
21.11.2017 07:35 10,8 C 10,9 C 99 % 95 % 1008,8 hPa 0,0 l/m 15,7 km/h (3 Bft) SW 230 0 min
21.11.2017 07:40 10,8 C 10,9 C 99 % 95 % 1008,8 hPa 0,0 l/m 18,2 km/h (3 Bft) SW 235 0 min
21.11.2017 07:45 10,8 C 10,8 C 99 % 95 % 1008,8 hPa 0,3 l/m 18,2 km/h (3 Bft) SW 225 0 min
21.11.2017 07:50 10,7 C 10,8 C 99 % 95 % 1008,8 hPa 0,0 l/m 18,2 km/h (3 Bft) SW 215 0 min
21.11.2017 07:55 10,7 C 10,8 C 99 % 95 % 1008,8 hPa 0,0 l/m 12,7 km/h (3 Bft) SW 225 0 min
21.11.2017 08:00 10,7 C 10,8 C 99 % 95 % 1009,8 hPa 0,3 l/m 12,1 km/h (2 Bft) SW 215 0 min
21.11.2017 08:05 10,7 C 10,8 C 99 % 95 % 1009,8 hPa 0,0 l/m 13,3 km/h (3 Bft) S-SW 205 0 min
21.11.2017 08:10 10,7 C 10,8 C 99 % 95 % 1009,8 hPa 0,0 l/m 11,5 km/h (2 Bft) S-SW 200 0 min
21.11.2017 08:15 10,7 C 10,7 C 99 % 95 % 1009,8 hPa 0,0 l/m 10,9 km/h (2 Bft) W-SW 240 0 min
21.11.2017 08:20 10,6 C 10,7 C 99 % 95 % 1009,8 hPa 0,0 l/m 10,9 km/h (2 Bft) SW 220 0 min
21.11.2017 08:25 10,7 C 10,7 C 99 % 95 % 1009,8 hPa 0,0 l/m 16,3 km/h (3 Bft) SW 225 0 min
21.11.2017 08:30 10,6 C 10,7 C 99 % 95 % 1008,8 hPa 0,0 l/m 13,3 km/h (3 Bft) SW 220 0 min
21.11.2017 08:35 10,7 C 10,7 C 99 % 95 % 1008,8 hPa 0,3 l/m 14,5 km/h (3 Bft) W-SW 240 0 min
21.11.2017 08:40 10,6 C 10,7 C 99 % 95 % 1008,8 hPa 0,0 l/m 15,7 km/h (3 Bft) SW 230 0 min
21.11.2017 08:45 10,6 C 10,7 C 99 % 95 % 1009,8 hPa 0,0 l/m 10,9 km/h (2 Bft) W-SW 240 0 min
21.11.2017 08:50 10,6 C 10,7 C 99 % 96 % 1009,8 hPa 0,0 l/m 10,9 km/h (2 Bft) SW 230 0 min
21.11.2017 08:55 10,6 C 10,7 C 99 % 96 % 1009,8 hPa 0,0 l/m 12,1 km/h (2 Bft) SW 225 0 min
21.11.2017 09:00 10,6 C 10,7 C 99 % 96 % 1009,8 hPa 0,3 l/m 13,3 km/h (3 Bft) SW 230 0 min
21.11.2017 09:05 10,6 C 10,7 C 99 % 96 % 1009,8 hPa 0,3 l/m 12,1 km/h (2 Bft) S-SW 210 0 min
21.11.2017 09:10 10,6 C 10,7 C 99 % 96 % 1009,8 hPa 0,0 l/m 10,3 km/h (2 Bft) SW 225 0 min
21.11.2017 09:15 10,6 C 10,7 C 99 % 96 % 1008,8 hPa 0,0 l/m 10,9 km/h (2 Bft) W-SW 240 0 min
21.11.2017 09:20 10,6 C 10,7 C 99 % 96 % 1008,8 hPa 0,0 l/m 11,5 km/h (2 Bft) SW 235 0 min
21.11.2017 09:25 10,6 C 10,8 C 99 % 96 % 1008,8 hPa 0,0 l/m 10,9 km/h (2 Bft) S 190 0 min
21.11.2017 09:30 10,6 C 10,7 C 99 % 96 % 1009,8 hPa 0,0 l/m 10,3 km/h (2 Bft) W-SW 240 0 min
21.11.2017 09:35 10,7 C 10,8 C 99 % 96 % 1009,8 hPa 0,0 l/m 13,3 km/h (3 Bft) W-SW 250 0 min
21.11.2017 09:40 10,7 C 10,8 C 99 % 96 % 1009,8 hPa 0,0 l/m 12,7 km/h (3 Bft) SW 220 0 min
21.11.2017 09:45 10,7 C 10,8 C 99 % 96 % 1009,8 hPa 0,3 l/m 13,3 km/h (3 Bft) SW 220 0 min
21.11.2017 09:50 10,7 C 10,8 C 99 % 96 % 1009,8 hPa 0,0 l/m 12,1 km/h (2 Bft) S-SW 210 0 min
21.11.2017 09:55 10,7 C 10,8 C 99 % 96 % 1009,8 hPa 0,0 l/m 13,9 km/h (3 Bft) W 265 0 min
21.11.2017 10:00 10,8 C 10,8 C 99 % 96 % 1009,8 hPa 0,3 l/m 19,4 km/h (3 Bft) S-SW 210 0 min
21.11.2017 10:05 10,8 C 10,9 C 99 % 96 % 1009,8 hPa 0,0 l/m 13,9 km/h (3 Bft) S 190 0 min
21.11.2017 10:10 10,8 C 10,9 C 99 % 96 % 1009,8 hPa 0,0 l/m 17,6 km/h (3 Bft) SW 225 0 min
21.11.2017 10:15 10,9 C 10,9 C 99 % 96 % 1009,8 hPa 0,0 l/m 21,8 km/h (4 Bft) W-SW 240 0 min
21.11.2017 10:20 10,8 C 10,9 C 99 % 96 % 1009,8 hPa 0,0 l/m 16,3 km/h (3 Bft) W-SW 245 0 min
21.11.2017 10:25 10,8 C 10,9 C 99 % 96 % 1009,8 hPa 0,0 l/m 13,9 km/h (3 Bft) SW 230 0 min
21.11.2017 10:30 10,9 C 11,0 C 99 % 96 % 1009,8 hPa 0,3 l/m 16,9 km/h (3 Bft) W-NW 295 0 min
21.11.2017 10:35 10,9 C 11,0 C 99 % 96 % 1009,8 hPa 0,0 l/m 23,0 km/h (4 Bft) SW 230 0 min
21.11.2017 10:40 10,9 C 11,0 C 99 % 96 % 1009,8 hPa 0,0 l/m 16,9 km/h (3 Bft) W-SW 255 0 min
21.11.2017 10:45 10,9 C 11,1 C 99 % 96 % 1009,8 hPa 0,0 l/m 14,5 km/h (3 Bft) SW 235 0 min
21.11.2017 10:50 10,9 C 11,0 C 99 % 96 % 1009,8 hPa 0,0 l/m 16,9 km/h (3 Bft) W-SW 240 0 min
21.11.2017 10:55 10,9 C 11,0 C 99 % 96 % 1009,8 hPa 0,0 l/m 16,3 km/h (3 Bft) W-SW 240 0 min
21.11.2017 11:00 10,9 C 11,0 C 99 % 96 % 1009,8 hPa 0,0 l/m 18,2 km/h (3 Bft) W-SW 250 0 min
21.11.2017 11:05 10,9 C 11,0 C 99 % 96 % 1009,8 hPa 0,0 l/m 20,0 km/h (4 Bft) SW 215 0 min
21.11.2017 11:10 10,9 C 11,0 C 99 % 96 % 1009,8 hPa 0,0 l/m 15,1 km/h (3 Bft) SW 230 0 min
21.11.2017 11:15 11,0 C 11,0 C 99 % 96 % 1009,8 hPa 0,0 l/m 16,9 km/h (3 Bft) W 260 0 min
21.11.2017 11:20 11,0 C 11,0 C 99 % 96 % 1009,8 hPa 0,0 l/m 20,6 km/h (4 Bft) S-SW 210 0 min
21.11.2017 11:25 11,0 C 11,1 C 99 % 96 % 1009,8 hPa 0,0 l/m 20,6 km/h (4 Bft) SW 230 0 min
21.11.2017 11:30 11,0 C 11,1 C 99 % 96 % 1009,8 hPa 0,0 l/m 20,0 km/h (4 Bft) SW 230 0 min
21.11.2017 11:35 11,0 C 11,1 C 99 % 96 % 1009,8 hPa 0,0 l/m 23,0 km/h (4 Bft) W 275 0 min
21.11.2017 11:40 11,0 C 11,1 C 99 % 96 % 1009,8 hPa 0,0 l/m 18,2 km/h (3 Bft) W-SW 240 0 min
21.11.2017 11:45 11,0 C 11,1 C 99 % 96 % 1009,8 hPa 0,0 l/m 18,8 km/h (3 Bft) SW 215 0 min
21.11.2017 11:50 11,0 C 11,2 C 99 % 96 % 1009,8 hPa 0,0 l/m 20,6 km/h (4 Bft) W 265 0 min
21.11.2017 11:55 11,0 C 11,2 C 99 % 95 % 1009,8 hPa 0,0 l/m 24,2 km/h (4 Bft) W 265 0 min
21.11.2017 12:00 11,0 C 11,2 C 99 % 95 % 1009,8 hPa 0,0 l/m 21,2 km/h (4 Bft) SW 230 0 min
21.11.2017 12:05 11,0 C 11,2 C 99 % 95 % 1009,8 hPa 0,0 l/m 21,8 km/h (4 Bft) W 275 0 min
21.11.2017 12:10 11,0 C 11,1 C 99 % 95 % 1009,8 hPa 0,0 l/m 22,4 km/h (4 Bft) SW 225 0 min
21.11.2017 12:15 10,9 C 11,1 C 99 % 95 % 1009,8 hPa 0,0 l/m 23,6 km/h (4 Bft) W 270 0 min
21.11.2017 12:20 10,9 C 11,1 C 99 % 96 % 1009,8 hPa 0,0 l/m 21,8 km/h (4 Bft) SW 230 0 min
21.11.2017 12:25 10,9 C 11,1 C 99 % 96 % 1009,8 hPa 0,3 l/m 25,4 km/h (4 Bft) S-SW 210 0 min
21.11.2017 12:30 10,9 C 11,1 C 99 % 96 % 1009,8 hPa 0,0 l/m 19,4 km/h (3 Bft) W 280 0 min
21.11.2017 12:35 10,9 C 11,1 C 99 % 96 % 1009,8 hPa 0,0 l/m 19,4 km/h (3 Bft) SW 230 0 min
21.11.2017 12:40 10,9 C 11,1 C 99 % 96 % 1009,8 hPa 0,0 l/m 20,0 km/h (4 Bft) W 280 0 min
21.11.2017 12:45 10,9 C 11,1 C 99 % 96 % 1009,8 hPa 0,0 l/m 19,4 km/h (3 Bft) SW 215 0 min
21.11.2017 12:50 10,9 C 11,0 C 99 % 96 % 1009,8 hPa 0,3 l/m 22,4 km/h (4 Bft) W-NW 285 0 min
21.11.2017 12:55 10,9 C 11,1 C 99 % 96 % 1009,8 hPa 0,0 l/m 20,0 km/h (4 Bft) S-SW 205 0 min
21.11.2017 13:00 10,9 C 11,0 C 99 % 96 % 1009,8 hPa 0,0 l/m 27,1 km/h (5 Bft) SW 225 0 min
21.11.2017 13:05 10,8 C 11,0 C 99 % 96 % 1009,8 hPa 0,0 l/m 24,2 km/h (4 Bft) SW 235 0 min
21.11.2017 13:10 10,8 C 11,0 C 99 % 96 % 1009,8 hPa 0,3 l/m 20,6 km/h (4 Bft) S-SW 200 0 min
21.11.2017 13:15 10,8 C 11,0 C 99 % 96 % 1009,8 hPa 0,0 l/m 26,3 km/h (4 Bft) W-SW 245 0 min
21.11.2017 13:20 10,8 C 11,0 C 99 % 96 % 1009,8 hPa 0,3 l/m 22,4 km/h (4 Bft) W-SW 250 0 min
21.11.2017 13:25 10,7 C 11,0 C 99 % 96 % 1009,8 hPa 0,0 l/m 23,0 km/h (4 Bft) W-SW 240 0 min
21.11.2017 13:30 10,7 C 11,0 C 99 % 96 % 1008,8 hPa 0,0 l/m 25,4 km/h (4 Bft) S-SW 200 0 min
21.11.2017 13:35 10,7 C 10,9 C 99 % 96 % 1008,8 hPa 0,0 l/m 23,0 km/h (4 Bft) W-SW 245 0 min
21.11.2017 13:40 10,7 C 10,9 C 99 % 96 % 1008,8 hPa 0,0 l/m 25,4 km/h (4 Bft) SW 220 0 min
21.11.2017 13:45 10,7 C 10,9 C 99 % 96 % 1009,8 hPa 0,0 l/m 24,2 km/h (4 Bft) W-SW 245 0 min
21.11.2017 13:50 10,6 C 10,8 C 99 % 95 % 1009,8 hPa 0,0 l/m 25,4 km/h (4 Bft) SW 220 0 min
21.11.2017 13:55 10,6 C 10,8 C 99 % 95 % 1009,8 hPa 0,0 l/m 25,4 km/h (4 Bft) W-NW 295 0 min
21.11.2017 14:00 10,6 C 10,7 C 99 % 95 % 1008,8 hPa 0,3 l/m 25,4 km/h (4 Bft) W-NW 300 0 min
21.11.2017 14:05 10,5 C 10,7 C 99 % 95 % 1008,8 hPa 0,0 l/m 25,4 km/h (4 Bft) W-SW 250 0 min
21.11.2017 14:10 10,5 C 10,7 C 99 % 95 % 1008,8 hPa 0,0 l/m 27,8 km/h (5 Bft) S 190 0 min
21.11.2017 14:15 10,5 C 10,7 C 99 % 95 % 1009,8 hPa 0,0 l/m 26,3 km/h (4 Bft) W-SW 240 0 min
21.11.2017 14:20 10,5 C 10,6 C 99 % 95 % 1009,8 hPa 0,0 l/m 32,1 km/h (5 Bft) SW 215 0 min
21.11.2017 14:25 10,5 C 10,6 C 99 % 95 % 1009,8 hPa 0,0 l/m 26,0 km/h (4 Bft) W-NW 300 0 min
21.11.2017 14:30 10,4 C 10,6 C 99 % 95 % 1008,8 hPa 0,0 l/m 26,0 km/h (4 Bft) W-SW 240 0 min
21.11.2017 14:35 10,4 C 10,6 C 99 % 95 % 1008,8 hPa 0,0 l/m 26,0 km/h (4 Bft) W 265 0 min
21.11.2017 14:40 10,4 C 10,6 C 99 % 95 % 1008,8 hPa 0,0 l/m 26,3 km/h (4 Bft) W 275 0 min
21.11.2017 14:45 10,4 C 10,6 C 99 % 95 % 1008,8 hPa 0,0 l/m 27,1 km/h (5 Bft) W-SW 255 0 min
21.11.2017 14:50 10,4 C 10,6 C 99 % 95 % 1008,8 hPa 0,0 l/m 20,6 km/h (4 Bft) S-SW 210 0 min
21.11.2017 14:55 10,4 C 10,5 C 98 % 95 % 1008,8 hPa 0,0 l/m 25,4 km/h (4 Bft) SW 220 0 min
21.11.2017 15:00 10,4 C 10,5 C 98 % 95 % 1009,8 hPa 0,0 l/m 26,3 km/h (4 Bft) S-SW 210 0 min
21.11.2017 15:05 10,4 C 10,5 C 98 % 94 % 1009,8 hPa 0,0 l/m 21,2 km/h (4 Bft) W-SW 255 0 min
21.11.2017 15:10 10,4 C 10,5 C 98 % 94 % 1009,8 hPa 0,0 l/m 21,2 km/h (4 Bft) W-SW 240 0 min
21.11.2017 15:15 10,4 C 10,5 C 97 % 94 % 1008,8 hPa 0,0 l/m 23,0 km/h (4 Bft) S-SW 210 0 min
21.11.2017 15:20 10,3 C 10,5 C 98 % 94 % 1008,8 hPa 0,0 l/m 26,0 km/h (4 Bft) SW 220 0 min
21.11.2017 15:25 10,3 C 10,5 C 97 % 94 % 1008,8 hPa 0,0 l/m 23,6 km/h (4 Bft) SW 235 0 min
21.11.2017 15:30 10,3 C 10,5 C 97 % 94 % 1009,8 hPa 0,0 l/m 26,0 km/h (4 Bft) S-SW 210 0 min
21.11.2017 15:35 10,3 C 10,4 C 97 % 94 % 1009,8 hPa 0,0 l/m 21,2 km/h (4 Bft) W 270 0 min
21.11.2017 15:40 10,2 C 10,4 C 97 % 93 % 1009,8 hPa 0,0 l/m 22,4 km/h (4 Bft) SW 235 0 min
21.11.2017 15:45 10,2 C 10,4 C 97 % 93 % 1008,8 hPa 0,0 l/m 24,8 km/h (4 Bft) W 270 0 min
21.11.2017 15:50 10,2 C 10,3 C 97 % 93 % 1008,8 hPa 0,0 l/m 25,4 km/h (4 Bft) W-NW 285 0 min
21.11.2017 15:55 10,2 C 10,3 C 97 % 93 % 1008,8 hPa 0,0 l/m 28,2 km/h (5 Bft) SW 215 0 min
21.11.2017 16:00 10,2 C 10,3 C 97 % 93 % 1008,8 hPa 0,0 l/m 23,6 km/h (4 Bft) SW 235 0 min
21.11.2017 16:05 10,3 C 10,3 C 96 % 93 % 1008,8 hPa 0,0 l/m 26,3 km/h (4 Bft) N-NW 330 0 min
21.11.2017 16:10 10,2 C 10,3 C 96 % 93 % 1008,8 hPa 0,0 l/m 24,8 km/h (4 Bft) SW 225 0 min
21.11.2017 16:15 10,2 C 10,3 C 97 % 93 % 1008,8 hPa 0,0 l/m 21,8 km/h (4 Bft) W-SW 245 0 min
21.11.2017 16:20 10,2 C 10,3 C 96 % 93 % 1008,8 hPa 0,0 l/m 16,3 km/h (3 Bft) W-SW 245 0 min
21.11.2017 16:25 10,3 C 10,3 C 96 % 93 % 1008,8 hPa 0,0 l/m 18,2 km/h (3 Bft) SW 225 0 min
21.11.2017 16:30 10,2 C 10,3 C 96 % 92 % 1008,8 hPa 0,0 l/m 18,2 km/h (3 Bft) S-SW 200 0 min
21.11.2017 16:35 10,2 C 10,3 C 96 % 92 % 1008,8 hPa 0,0 l/m 19,4 km/h (3 Bft) SW 235 0 min
21.11.2017 16:40 10,2 C 10,3 C 96 % 92 % 1008,8 hPa 0,0 l/m 19,4 km/h (3 Bft) SW 230 0 min
21.11.2017 16:45 10,2 C 10,3 C 96 % 92 % 1008,8 hPa 0,0 l/m 19,4 km/h (3 Bft) S-SW 200 0 min
21.11.2017 16:50 10,2 C 10,2 C 95 % 92 % 1008,8 hPa 0,0 l/m 23,0 km/h (4 Bft) W-SW 240 0 min
21.11.2017 16:55 10,2 C 10,2 C 95 % 92 % 1008,8 hPa 0,0 l/m 18,2 km/h (3 Bft) SW 220 0 min
21.11.2017 17:00 10,2 C 10,2 C 94 % 91 % 1008,8 hPa 0,0 l/m 24,8 km/h (4 Bft) W-SW 245 0 min
21.11.2017 17:05 10,1 C 10,2 C 95 % 91 % 1008,8 hPa 0,0 l/m 26,3 km/h (4 Bft) W-SW 255 0 min
21.11.2017 17:10 10,0 C 10,2 C 95 % 91 % 1008,8 hPa 0,0 l/m 23,6 km/h (4 Bft) SW 220 0 min
21.11.2017 17:15 10,1 C 10,2 C 94 % 91 % 1008,8 hPa 0,0 l/m 29,4 km/h (5 Bft) SW 220 0 min
21.11.2017 17:20 10,1 C 10,2 C 93 % 91 % 1008,8 hPa 0,0 l/m 24,2 km/h (4 Bft) S-SW 210 0 min
21.11.2017 17:25 10,0 C 10,2 C 94 % 90 % 1008,8 hPa 0,0 l/m 26,3 km/h (4 Bft) SW 235 0 min
21.11.2017 17:30 10,1 C 10,1 C 93 % 90 % 1008,8 hPa 0,0 l/m 26,3 km/h (4 Bft) NW 315 0 min
21.11.2017 17:35 10,1 C 10,1 C 93 % 90 % 1008,8 hPa 0,0 l/m 27,4 km/h (5 Bft) S-SW 210 0 min
21.11.2017 17:40 10,0 C 10,1 C 93 % 90 % 1008,8 hPa 0,0 l/m 23,0 km/h (4 Bft) W-SW 245 0 min
21.11.2017 17:45 10,0 C 10,1 C 93 % 90 % 1008,8 hPa 0,0 l/m 21,2 km/h (4 Bft) W-SW 240 0 min
21.11.2017 17:50 10,0 C 10,1 C 93 % 90 % 1008,8 hPa 0,0 l/m 18,2 km/h (3 Bft) S-SW 200 0 min
21.11.2017 17:55 10,0 C 10,0 C 93 % 90 % 1008,8 hPa 0,0 l/m 16,9 km/h (3 Bft) W-SW 245 0 min
21.11.2017 18:00 10,0 C 10,1 C 93 % 90 % 1009,8 hPa 0,0 l/m 26,3 km/h (4 Bft) S-SW 200 0 min
21.11.2017 18:05 10,0 C 10,1 C 92 % 90 % 1009,8 hPa 0,0 l/m 29,8 km/h (5 Bft) SW 225 0 min
21.11.2017 18:10 10,0 C 10,0 C 92 % 89 % 1009,8 hPa 0,0 l/m 19,4 km/h (3 Bft) SW 235 0 min
21.11.2017 18:15 10,0 C 10,0 C 92 % 89 % 1009,8 hPa 0,0 l/m 19,4 km/h (3 Bft) S-SW 210 0 min
21.11.2017 18:20 10,0 C 10,0 C 92 % 89 % 1009,8 hPa 0,0 l/m 21,8 km/h (4 Bft) SW 230 0 min
21.11.2017 18:25 10,0 C 10,0 C 92 % 89 % 1009,8 hPa 0,0 l/m 21,8 km/h (4 Bft) W-SW 255 0 min
21.11.2017 18:30 10,0 C 10,0 C 92 % 89 % 1008,8 hPa 0,0 l/m 21,8 km/h (4 Bft) W 270 0 min
21.11.2017 18:35 10,0 C 10,0 C 92 % 89 % 1008,8 hPa 0,0 l/m 21,8 km/h (4 Bft) SW 235 0 min
21.11.2017 18:40 10,0 C 10,0 C 91 % 89 % 1008,8 hPa 0,0 l/m 23,0 km/h (4 Bft) SW 230 0 min
21.11.2017 18:45 10,0 C 10,0 C 90 % 89 % 1008,8 hPa 0,0 l/m 21,8 km/h (4 Bft) S-SW 200 0 min
21.11.2017 18:50 10,0 C 10,0 C 91 % 89 % 1008,8 hPa 0,0 l/m 25,4 km/h (4 Bft) SW 235 0 min
21.11.2017 18:55 10,0 C 10,0 C 91 % 89 % 1008,8 hPa 0,0 l/m 18,8 km/h (3 Bft) SW 225 0 min
21.11.2017 19:00 10,0 C 10,0 C 91 % 89 % 1008,8 hPa 0,0 l/m 20,6 km/h (4 Bft) S-SW 200 0 min
21.11.2017 19:05 9,9 C 10,0 C 91 % 89 % 1008,8 hPa 0,0 l/m 18,8 km/h (3 Bft) SW 215 0 min
21.11.2017 19:10 10,0 C 10,0 C 90 % 88 % 1008,8 hPa 0,0 l/m 23,6 km/h (4 Bft) SW 215 0 min
21.11.2017 19:15 10,0 C 10,0 C 90 % 88 % 1008,8 hPa 0,0 l/m 21,2 km/h (4 Bft) W-SW 240 0 min
21.11.2017 19:20 9,9 C 10,0 C 90 % 88 % 1008,8 hPa 0,0 l/m 20,0 km/h (4 Bft) SW 215 0 min
21.11.2017 19:25 9,9 C 10,0 C 90 % 88 % 1008,8 hPa 0,0 l/m 20,0 km/h (4 Bft) S-SW 195 0 min
21.11.2017 19:30 9,9 C 10,0 C 90 % 88 % 1008,8 hPa 0,0 l/m 15,1 km/h (3 Bft) SW 230 0 min
21.11.2017 19:35 10,0 C 10,0 C 90 % 88 % 1008,8 hPa 0,0 l/m 13,9 km/h (3 Bft) SW 235 0 min
21.11.2017 19:40 9,9 C 10,0 C 91 % 88 % 1008,8 hPa 0,0 l/m 24,2 km/h (4 Bft) SW 220 0 min
21.11.2017 19:45 9,9 C 10,0 C 90 % 88 % 1008,8 hPa 0,0 l/m 19,4 km/h (3 Bft) S-SW 210 0 min
21.11.2017 19:50 9,9 C 9,9 C 90 % 88 % 1008,8 hPa 0,0 l/m 20,6 km/h (4 Bft) SW 220 0 min
21.11.2017 19:55 9,9 C 9,9 C 91 % 88 % 1008,8 hPa 0,0 l/m 17,6 km/h (3 Bft) S-SW 210 0 min
21.11.2017 20:00 9,8 C 9,9 C 90 % 88 % 1008,8 hPa 0,0 l/m 14,5 km/h (3 Bft) S-SW 200 0 min
21.11.2017 20:05 9,9 C 9,9 C 90 % 88 % 1008,8 hPa 0,0 l/m 14,5 km/h (3 Bft) W-NW 300 0 min
21.11.2017 20:10 9,8 C 9,9 C 90 % 88 % 1008,8 hPa 0,0 l/m 23,0 km/h (4 Bft) SO 140 0 min
21.11.2017 20:15 9,8 C 9,9 C 90 % 88 % 1008,8 hPa 0,0 l/m 20,6 km/h (4 Bft) SW 230 0 min
21.11.2017 20:20 9,8 C 9,9 C 90 % 88 % 1008,8 hPa 0,0 l/m 19,4 km/h (3 Bft) S-SW 200 0 min
21.11.2017 20:25 9,8 C 9,8 C 90 % 88 % 1008,8 hPa 0,0 l/m 20,6 km/h (4 Bft) S-SO 165 0 min
21.11.2017 20:30 9,9 C 9,8 C 90 % 88 % 1008,8 hPa 0,0 l/m 24,2 km/h (4 Bft) SW 215 0 min
21.11.2017 20:35 9,8 C 9,8 C 90 % 88 % 1008,8 hPa 0,0 l/m 19,4 km/h (3 Bft) SW 220 0 min
21.11.2017 20:40 9,9 C 9,8 C 89 % 88 % 1008,8 hPa 0,0 l/m 25,4 km/h (4 Bft) W 265 0 min
21.11.2017 20:45 9,9 C 9,9 C 89 % 88 % 1008,8 hPa 0,0 l/m 20,6 km/h (4 Bft) S-SW 200 0 min
21.11.2017 20:50 9,9 C 9,9 C 89 % 87 % 1008,8 hPa 0,0 l/m 24,2 km/h (4 Bft) SW 230 0 min
21.11.2017 20:55 9,8 C 9,8 C 89 % 88 % 1008,8 hPa 0,0 l/m 18,2 km/h (3 Bft) S-SW 200 0 min
21.11.2017 21:00 9,8 C 9,8 C 89 % 88 % 1008,8 hPa 0,0 l/m 20,0 km/h (4 Bft) S-SW 195 0 min
21.11.2017 21:05 9,8 C 9,8 C 89 % 87 % 1008,8 hPa 0,0 l/m 21,8 km/h (4 Bft) SW 235 0 min
21.11.2017 21:10 9,7 C 9,8 C 90 % 87 % 1008,8 hPa 0,0 l/m 20,0 km/h (4 Bft) S-SW 205 0 min
21.11.2017 21:15 9,8 C 9,8 C 90 % 88 % 1008,8 hPa 0,0 l/m 17,6 km/h (3 Bft) SW 225 0 min
21.11.2017 21:20 9,8 C 9,8 C 89 % 88 % 1008,8 hPa 0,0 l/m 20,6 km/h (4 Bft) S-SW 205 0 min
21.11.2017 21:25 9,8 C 9,8 C 89 % 88 % 1008,8 hPa 0,0 l/m 18,2 km/h (3 Bft) S-SW 200 0 min
21.11.2017 21:30 9,7 C 9,8 C 89 % 87 % 1008,8 hPa 0,0 l/m 15,7 km/h (3 Bft) W-SW 245 0 min
21.11.2017 21:35 9,7 C 9,8 C 89 % 87 % 1008,8 hPa 0,0 l/m 16,9 km/h (3 Bft) SO 135 0 min
21.11.2017 21:40 9,7 C 9,8 C 89 % 87 % 1008,8 hPa 0,0 l/m 16,9 km/h (3 Bft) S 185 0 min
21.11.2017 21:45 9,7 C 9,7 C 89 % 87 % 1007,8 hPa 0,0 l/m 20,0 km/h (4 Bft) SW 215 0 min
21.11.2017 21:50 9,6 C 9,7 C 89 % 87 % 1007,8 hPa 0,0 l/m 15,7 km/h (3 Bft) S-SW 200 0 min
21.11.2017 21:55 9,6 C 9,7 C 89 % 87 % 1007,8 hPa 0,0 l/m 12,1 km/h (2 Bft) S-SO 155 0 min
21.11.2017 22:00 9,6 C 9,7 C 89 % 87 % 1008,8 hPa 0,0 l/m 18,2 km/h (3 Bft) SW 215 0 min
21.11.2017 22:05 9,6 C 9,7 C 88 % 87 % 1008,8 hPa 0,0 l/m 21,8 km/h (4 Bft) S 180 0 min
21.11.2017 22:10 9,7 C 9,7 C 88 % 87 % 1008,8 hPa 0,0 l/m 21,2 km/h (4 Bft) S-SW 205 0 min
21.11.2017 22:15 9,6 C 9,7 C 88 % 86 % 1008,8 hPa 0,0 l/m 18,8 km/h (3 Bft) S 180 0 min
21.11.2017 22:20 9,6 C 9,7 C 88 % 86 % 1008,8 hPa 0,0 l/m 20,6 km/h (4 Bft) SO 145 0 min
21.11.2017 22:25 9,6 C 9,7 C 88 % 86 % 1008,8 hPa 0,0 l/m 18,2 km/h (3 Bft) SO 145 0 min
21.11.2017 22:30 9,6 C 9,7 C 87 % 86 % 1008,8 hPa 0,0 l/m 21,2 km/h (4 Bft) SW 220 0 min
21.11.2017 22:35 9,6 C 9,7 C 88 % 86 % 1008,8 hPa 0,0 l/m 14,5 km/h (3 Bft) S-SO 160 0 min
21.11.2017 22:40 9,6 C 9,6 C 87 % 86 % 1008,8 hPa 0,0 l/m 23,0 km/h (4 Bft) S-SW 195 0 min
21.11.2017 22:45 9,7 C 9,7 C 87 % 86 % 1008,8 hPa 0,0 l/m 21,2 km/h (4 Bft) S-SW 195 0 min
21.11.2017 22:50 9,6 C 9,6 C 87 % 86 % 1008,8 hPa 0,0 l/m 14,5 km/h (3 Bft) SO 130 0 min
21.11.2017 22:55 9,7 C 9,7 C 87 % 86 % 1008,8 hPa 0,0 l/m 16,3 km/h (3 Bft) W-SW 250 0 min
21.11.2017 23:00 9,7 C 9,7 C 87 % 85 % 1007,8 hPa 0,0 l/m 22,4 km/h (4 Bft) S-SO 160 0 min
21.11.2017 23:05 9,7 C 9,7 C 86 % 85 % 1007,8 hPa 0,0 l/m 23,0 km/h (4 Bft) SW 215 0 min
21.11.2017 23:10 9,7 C 9,7 C 86 % 85 % 1007,8 hPa 0,0 l/m 17,6 km/h (3 Bft) S-SW 195 0 min
21.11.2017 23:15 9,7 C 9,7 C 86 % 85 % 1007,8 hPa 0,0 l/m 18,2 km/h (3 Bft) S 170 0 min
21.11.2017 23:20 9,8 C 9,7 C 86 % 85 % 1007,8 hPa 0,0 l/m 21,8 km/h (4 Bft) S 185 0 min
21.11.2017 23:25 9,8 C 9,8 C 86 % 85 % 1007,8 hPa 0,0 l/m 25,4 km/h (4 Bft) S-SW 205 0 min
21.11.2017 23:30 9,8 C 9,8 C 86 % 85 % 1007,8 hPa 0,0 l/m 22,4 km/h (4 Bft) S-SO 165 0 min
21.11.2017 23:35 9,7 C 9,8 C 86 % 85 % 1007,8 hPa 0,0 l/m 18,8 km/h (3 Bft) S-SW 200 0 min
21.11.2017 23:40 9,8 C 9,8 C 86 % 85 % 1007,8 hPa 0,0 l/m 24,2 km/h (4 Bft) S 190 0 min
21.11.2017 23:45 9,7 C 9,8 C 86 % 85 % 1007,8 hPa 0,0 l/m 19,4 km/h (3 Bft) SW 225 0 min
21.11.2017 23:50 9,8 C 9,8 C 86 % 85 % 1007,8 hPa 0,0 l/m 21,2 km/h (4 Bft) S-SO 165 0 min
21.11.2017 23:55 9,7 C 9,8 C 87 % 85 % 1007,8 hPa 0,0 l/m 21,2 km/h (4 Bft) S 170 0 min
_ Min-Zeit 21:50 22:40 23:05 23:00 23:25 - 03:50 - - -
Minimum _ 9,6 C 9,6 C 86 % 85 % 1007,8 hPa - 10,3 km/h (2 Bft) - - -
_ Max-Zeit 11:15 11:50 00:00 04:35 18:10 04:40 14:20 - - 00:00
Maximum _ 11,0 C 11,2 C 99 % 96 % 1009,8 hPa 0,6 l/m 32,1 km/h
SW (5 Bft)
- - 0 min
Durchschnitt _ 10,4 C 10,4 C 96 % 93 % 1009,1 hPa #6,8 l/m 18,9 km/h (3 Bft) SW - #0 min.